DW0602 Weather Reports


Display with metric or nautical units.
time (UTC)temp
F
wind
direction
speed
MPH
gust
MPH
rain 1hr
in
rain 24hr
in
rain mn
in
humidity
%
barometer
mb
20260508115325 43 335 1.0 3.0 0.00 0.00 0.00 65 1015.7
20260508114523 42 333 0.0 4.0 0.00 0.00 0.00 67 1016.1
20260508114314 42 339 1.0 4.0 0.00 0.00 0.00 67 1015.5
20260508113807 42 339 1.0 4.0 0.00 0.00 0.00 68 1015.7
20260508113301 41 328 1.0 3.0 0.00 0.00 0.00 70 1015.7
20260508113028 40 339 0.0 3.0 0.00 0.00 0.00 70 1016.0
20260508112757 40 342 0.0 3.0 0.00 0.00 0.00 72 1015.7
20260508112249 39 344 0.0 1.0 0.00 0.00 0.00 74 1015.5
20260508111744 39 344 0.0 0.0 0.00 0.00 0.00 74 1015.5
20260508111518 39 338 0.0 0.0 0.00 0.00 0.00 73 1015.9
20260508111237 40 344 0.0 0.0 0.00 0.00 0.00 74 1015.5
20260508110732 40 343 0.0 1.0 0.00 0.00 0.00 74 1015.5
20260508110226 40 343 0.0 1.0 0.00 0.00 0.00 73 1015.5
20260508110022 40 337 0.0 0.0 0.00 0.00 0.00 72 1015.9
20260508105719 40 343 0.0 0.0 0.00 0.00 0.00 72 1015.5
20260508105213 40 343 0.0 0.0 0.00 0.00 0.00 70 1015.4
20260508104707 41 343 0.0 0.0 0.00 0.00 0.00 69 1015.4
20260508104529 41 337 0.0 0.0 0.00 0.00 0.00 68 1015.7
20260508104201 41 343 0.0 0.0 0.00 0.00 0.00 69 1015.4
20260508103655 42 343 0.0 0.0 0.00 0.00 0.00 67 1015.4
20260508103033 42 337 0.0 0.0 0.00 0.00 0.00 65 1015.8
20260508101631 43 343 0.0 0.0 0.00 0.00 0.00 65 1015.4
20260508101528 43 337 0.0 0.0 0.00 0.00 0.00 64 1015.8
20260508101127 44 343 0.0 0.0 0.00 0.00 0.00 64 1015.4
20260508100620 44 343 0.0 1.0 0.00 0.00 0.00 63 1015.3
20260508100114 44 343 0.0 2.0 0.00 0.00 0.00 64 1015.3
20260508100017 43 337 0.0 2.0 0.00 0.00 0.00 63 1015.7
20260508095607 44 343 1.0 3.0 0.00 0.00 0.00 64 1015.2
20260508095101 43 314 1.0 3.0 0.00 0.00 0.00 66 1015.3
20260508094555 42 329 0.0 3.0 0.00 0.00 0.00 67 1015.2
20260508094506 42 323 0.0 3.0 0.00 0.00 0.00 67 1015.7
20260508094049 42 338 0.0 2.0 0.00 0.00 0.00 69 1015.3
20260508093543 43 329 0.0 1.0 0.00 0.00 0.00 69 1015.3
20260508093037 44 328 0.0 0.0 0.00 0.00 0.00 68 1015.3
20260508093008 43 323 0.0 0.0 0.00 0.00 0.00 67 1015.8
20260508092532 44 328 0.0 1.0 0.00 0.00 0.00 67 1015.4
20260508091527 45 328 1.0 4.0 0.00 0.00 0.00 67 1015.3
20260508091514 45 323 0.0 4.0 0.00 0.00 0.00 66 1015.8
20260508091026 45 331 1.0 4.0 0.00 0.00 0.00 66 1015.4
20260508090016 46 325 0.0 3.0 0.00 0.00 0.00 65 1015.9
20260508085526 46 333 0.0 3.0 0.00 0.00 0.00 65 1015.4
20260508085025 46 344 0.0 3.0 0.00 0.00 0.00 65 1015.5
20260508084524 47 340 0.0 4.0 0.00 0.00 0.00 64 1015.7
20260508084522 46 340 0.0 4.0 0.00 0.00 0.00 64 1016.1
20260508084023 47 340 1.0 4.0 0.00 0.00 0.00 64 1015.8
20260508083521 47 347 0.0 3.0 0.00 0.00 0.00 64 1015.9
20260508083023 47 335 0.0 3.0 0.00 0.00 0.00 64 1015.9
20260508083006 47 329 0.0 3.0 0.00 0.00 0.00 63 1016.5
20260508082520 47 339 1.0 4.0 0.00 0.00 0.00 63 1016.2
20260508081517 47 342 1.0 5.0 0.00 0.00 0.00 62 1016.3
20260508081511 47 338 1.0 5.0 0.00 0.00 0.00 62 1016.8
20260508081017 47 333 0.0 3.0 0.00 0.00 0.00 62 1016.2
20260508080515 48 7 1.0 3.0 0.00 0.00 0.00 61 1016.0
20260508080015 48 335 0.0 2.0 0.00 0.00 0.00 61 1015.9
20260508080012 48 329 0.0 2.0 0.00 0.00 0.00 60 1016.4
20260508075516 48 355 0.0 4.0 0.00 0.00 0.00 61 1016.0
20260508075009 48 334 1.0 4.0 0.00 0.00 0.00 60 1016.0
20260508074520 48 43 0.0 3.0 0.00 0.00 0.00 59 1016.7
20260508074506 49 37 0.0 3.0 0.00 0.00 0.00 60 1016.2
20260508074002 49 15 1.0 3.0 0.00 0.00 0.00 59 1016.2
20260508073503 49 29 1.0 3.0 0.00 0.00 0.00 59 1016.0
20260508073026 49 52 0.0 6.0 0.00 0.00 0.00 57 1016.6
20260508073003 50 46 1.0 6.0 0.00 0.00 0.00 58 1016.2
20260508072000 50 345 0.0 1.0 0.00 0.00 0.00 56 1016.3
20260508071510 50 338 0.0 1.0 0.00 0.00 0.00 55 1016.8
20260508071458 50 345 0.0 1.0 0.00 0.00 0.00 55 1016.3
20260508070957 50 342 0.0 3.0 0.00 0.00 0.00 55 1016.3
20260508070456 50 323 1.0 3.0 0.00 0.00 0.00 55 1016.4
20260508070027 49 329 1.0 4.0 0.00 0.00 0.00 55 1017.0
20260508065955 50 335 1.0 4.0 0.00 0.00 0.00 55 1016.4
20260508065455 50 56 1.0 5.0 0.00 0.00 0.00 56 1016.4
20260508064523 50 5 0.0 3.0 0.00 0.00 0.00 55 1016.8
20260508064456 51 1 0.0 3.0 0.00 0.00 0.00 55 1016.3
20260508063455 51 13 0.0 3.0 0.00 0.00 0.00 53 1016.2
20260508063018 50 55 0.0 3.0 0.00 0.00 0.00 53 1016.8
20260508062954 51 49 0.0 3.0 0.00 0.00 0.00 53 1016.3
20260508062455 51 57 1.0 2.0 0.00 0.00 0.00 52 1016.3
20260508061955 51 321 1.0 3.0 0.00 0.00 0.00 51 1016.2
20260508061522 50 319 1.0 3.0 0.00 0.00 0.00 51 1016.7
20260508061456 51 325 1.0 3.0 0.00 0.00 0.00 52 1016.2
20260508060956 50 285 0.0 3.0 0.00 0.00 0.00 52 1016.2
20260508060456 50 347 0.0 2.0 0.00 0.00 0.00 52 1016.0
20260508060026 50 326 0.0 1.0 0.00 0.00 0.00 52 1016.7
20260508055954 50 332 0.0 1.0 0.00 0.00 0.00 53 1016.2
20260508055448 50 332 0.0 1.0 0.00 0.00 0.00 51 1016.0
20260508054531 51 320 0.0 0.0 0.00 0.00 0.00 49 1016.7
20260508053930 51 326 0.0 0.0 0.00 0.00 0.00 49 1016.0
20260508053017 51 320 0.0 0.0 0.00 0.00 0.00 47 1016.6
20260508052919 52 326 0.0 0.0 0.00 0.00 0.00 47 1015.9
20260508052413 53 326 0.0 1.0 0.00 0.00 0.00 47 1016.0
20260508051906 53 326 0.0 1.0 0.00 0.00 0.00 45 1016.0
20260508051522 53 323 0.0 0.0 0.00 0.00 0.00 43 1016.7
20260508051401 53 331 0.0 0.0 0.00 0.00 0.00 44 1016.2
20260508050348 54 331 0.0 1.0 0.00 0.00 0.00 43 1015.9
20260508050033 54 325 0.0 1.0 0.00 0.00 0.00 41 1016.6
20260508045842 54 331 0.0 1.0 0.00 0.00 0.00 42 1015.9
20260508044831 54 331 1.0 3.0 0.00 0.00 0.00 41 1015.9
20260508044526 54 329 0.0 3.0 0.00 0.00 0.00 40 1016.6
20260508044324 54 44 1.0 3.0 0.00 0.00 0.00 41 1015.9
20260508043818 55 44 2.0 5.0 0.00 0.00 0.00 42 1015.9
20260508043038 55 265 2.0 6.0 0.00 0.00 0.00 38 1016.8
20260508042806 55 284 0.0 2.0 0.00 0.00 0.00 39 1016.2
20260508042300 56 13 0.0 3.0 0.00 0.00 0.00 40 1016.2
20260508041521 55 349 0.0 3.0 0.00 0.00 0.00 38 1016.7
20260508041248 56 330 1.0 3.0 0.00 0.00 0.00 39 1016.2
20260508040742 56 330 0.0 2.0 0.00 0.00 0.00 41 1016.2
20260508040236 56 297 0.0 2.0 0.00 0.00 0.00 42 1016.2
20260508040004 55 350 0.0 2.0 0.00 0.00 0.00 43 1016.8
20260508035730 56 357 0.0 2.0 0.00 0.00 0.00 43 1016.2
20260508035224 56 357 0.0 2.0 0.00 0.00 0.00 43 1016.2
20260508034719 56 22 0.0 1.0 0.00 0.00 0.00 44 1016.0
20260508034508 55 29 0.0 1.0 0.00 0.00 0.00 43 1016.7
20260508034213 56 30 0.0 1.0 0.00 0.00 0.00 43 1015.9
20260508033200 56 33 0.0 2.0 0.00 0.00 0.00 42 1015.8
20260508033012 56 39 0.0 2.0 0.00 0.00 0.00 41 1016.3
20260508032654 56 33 0.0 2.0 0.00 0.00 0.00 42 1015.8
20260508032148 56 125 0.0 1.0 0.00 0.00 0.00 41 1015.7
20260508031643 56 125 0.0 1.0 0.00 0.00 0.00 40 1015.5
20260508031517 56 128 0.0 2.0 0.00 0.00 0.00 40 1016.1
20260508031136 57 125 0.0 2.0 0.00 0.00 0.00 40 1015.5
20260508030125 57 125 0.0 2.0 0.00 0.00 0.00 39 1015.3
20260508030025 57 128 0.0 2.0 0.00 0.00 0.00 38 1015.7
20260508025620 57 125 0.0 2.0 0.00 0.00 0.00 38 1015.3
20260508025120 58 161 0.0 0.0 0.00 0.00 0.00 37 1015.1
20260508024619 58 161 0.0 0.0 0.00 0.00 0.00 37 1015.1
20260508024506 58 162 0.0 0.0 0.00 0.00 0.00 36 1015.6
20260508024119 58 161 0.0 1.0 0.00 0.00 0.00 37 1015.1
20260508023618 59 161 0.0 3.0 0.00 0.00 0.00 36 1015.1
20260508023116 59 160 0.0 3.0 0.00 0.00 0.00 35 1014.9
20260508023008 58 161 0.0 4.0 0.00 0.00 0.00 35 1015.5
20260508022615 59 160 1.0 3.0 0.00 0.00 0.00 34 1014.9
20260508022113 59 157 1.0 3.0 0.00 0.00 0.00 33 1014.9
20260508021514 60 250 0.0 1.0 0.00 0.00 0.00 29 1015.3
20260508021108 60 264 0.0 1.0 0.00 0.00 0.00 28 1014.7
20260508020607 61 264 0.0 3.0 0.00 0.00 0.00 29 1014.7
20260508020104 61 264 1.0 4.0 0.00 0.00 0.00 28 1014.7
20260508020029 61 261 0.0 4.0 0.00 0.00 0.00 27 1015.2
20260508015601 61 268 1.0 4.0 0.00 0.00 0.00 27 1014.7
20260508014601 62 271 1.0 3.0 0.00 0.00 0.00 26 1014.4
20260508014524 61 268 1.0 3.0 0.00 0.00 0.00 26 1015.0
20260508014101 62 279 2.0 5.0 0.00 0.00 0.00 26 1014.3
20260508013558 62 288 2.0 5.0 0.00 0.00 0.00 25 1014.3
20260508013058 62 307 2.0 4.0 0.00 0.00 0.00 26 1014.4
20260508013007 62 269 1.0 4.0 0.00 0.00 0.00 25 1015.0
20260508012059 62 288 2.0 7.0 0.00 0.00 0.00 25 1014.3
20260508011553 63 0 2.0 7.0 0.00 0.00 0.00 25 1014.2
20260508011513 62 310 2.0 9.0 0.00 0.00 0.00 25 1014.8
20260508011046 63 268 2.0 8.0 0.00 0.00 0.00 25 1014.2
20260508010545 63 293 2.0 8.0 0.00 0.00 0.00 24 1014.1
20260508010047 63 336 3.0 8.0 0.00 0.00 0.00 26 1014.1
20260508010018 63 355 1.0 9.0 0.00 0.00 0.00 24 1014.7
20260508005545 63 321 3.0 8.0 0.00 0.00 0.00 25 1014.1
20260508005046 63 271 3.0 7.0 0.00 0.00 0.00 24 1014.1
20260508004545 63 275 3.0 8.0 0.00 0.00 0.00 25 1014.1
20260508004520 63 283 1.0 9.0 0.00 0.00 0.00 25 1014.6
20260508004043 63 288 3.0 9.0 0.00 0.00 0.00 25 1014.1
20260508003541 63 321 4.0 9.0 0.00 0.00 0.00 24 1014.1
20260508003043 63 288 3.0 8.0 0.00 0.00 0.00 24 1014.0
20260508003026 63 271 4.0 9.0 0.00 0.00 0.00 23 1014.6
20260508002541 64 262 2.0 7.0 0.00 0.00 0.00 24 1014.0
20260508002041 64 304 3.0 7.0 0.00 0.00 0.00 24 1014.0
20260508001541 64 273 3.0 9.0 0.00 0.00 0.00 24 1014.0
20260508001519 63 350 3.0 10.0 0.00 0.00 0.00 23 1014.4
20260508001040 64 301 3.0 9.0 0.00 0.00 0.00 24 1014.0
20260508000541 64 281 1.0 5.0 0.00 0.00 0.00 25 1014.1
20260508000041 64 326 1.0 8.0 0.00 0.00 0.00 24 1014.1
20260508000016 63 282 1.0 8.0 0.00 0.00 0.00 23 1014.6
20260507235537 64 343 2.0 8.0 0.00 0.00 0.00 24 1014.1
20260507235037 64 288 3.0 9.0 0.00 0.00 0.00 25 1014.1
20260507234537 64 301 4.0 9.0 0.00 0.00 0.00 23 1014.1
20260507234519 63 304 2.0 10.0 0.00 0.00 0.00 23 1014.8
20260507234036 64 271 3.0 8.0 0.00 0.00 0.00 23 1014.1
20260507233537 64 224 3.0 8.0 0.00 0.00 0.00 24 1014.1
20260507233037 64 287 4.0 10.0 0.00 0.00 0.00 24 1014.1
20260507233025 64 13 2.0 13.0 0.00 0.00 0.00 23 1014.7
20260507232036 64 292 5.0 12.0 0.00 0.00 0.00 23 1014.1
20260507231532 64 250 5.0 13.0 0.00 0.00 0.00 22 1014.7
20260507231032 65 298 5.0 12.0 0.00 0.00 0.00 23 1014.2
20260507230532 66 318 6.0 14.0 0.00 0.00 0.00 22 1014.2
20260507230033 66 304 8.0 17.0 0.00 0.00 0.00 22 1014.2
20260507230012 66 327 8.0 18.0 0.00 0.00 0.00 21 1014.7
20260507225532 67 281 7.0 17.0 0.00 0.00 0.00 22 1014.2
20260507225032 67 331 6.0 13.0 0.00 0.00 0.00 22 1014.2
20260507224533 67 348 6.0 13.0 0.00 0.00 0.00 22 1014.1
20260507224516 66 307 7.0 14.0 0.00 0.00 0.00 21 1014.7
20260507224032 67 268 5.0 14.0 0.00 0.00 0.00 21 1014.2
20260507223033 67 287 6.0 14.0 0.00 0.00 0.00 21 1014.3
20260507223024 67 273 5.0 16.0 0.00 0.00 0.00 20 1014.9
20260507222527 68 319 6.0 15.0 0.00 0.00 0.00 22 1014.2
20260507222028 67 302 5.0 15.0 0.00 0.00 0.00 21 1014.1
20260507221524 67 228 6.0 15.0 0.00 0.00 0.00 20 1014.7
20260507221028 67 258 6.0 15.0 0.00 0.00 0.00 21 1014.2
20260507220528 67 294 6.0 15.0 0.00 0.00 0.00 21 1014.2
20260507220029 67 319 6.0 13.0 0.00 0.00 0.00 22 1014.2
20260507220020 66 343 7.0 14.0 0.00 0.00 0.00 21 1014.8
20260507215529 67 276 4.0 12.0 0.00 0.00 0.00 24 1014.3
20260507215030 66 341 4.0 11.0 0.00 0.00 0.00 24 1014.4
20260507214512 66 294 4.0 11.0 0.00 0.00 0.00 24 1015.0
20260507214025 66 340 6.0 12.0 0.00 0.00 0.00 24 1014.6
20260507213525 66 295 5.0 12.0 0.00 0.00 0.00 25 1014.7
20260507213024 66 257 3.0 10.0 0.00 0.00 0.00 25 1014.7
20260507213006 66 282 4.0 11.0 0.00 0.00 0.00 24 1015.2
20260507212525 66 265 3.0 10.0 0.00 0.00 0.00 26 1014.9
20260507211523 65 328 4.0 13.0 0.00 0.00 0.00 26 1015.1
20260507211503 65 264 3.0 14.0 0.00 0.00 0.00 26 1015.5
20260507211023 65 323 4.0 12.0 0.00 0.00 0.00 26 1015.1
20260507210524 65 83 4.0 11.0 0.00 0.00 0.00 26 1015.2
20260507210021 65 321 4.0 14.0 0.00 0.00 0.00 25 1015.4
20260507210006 65 281 3.0 15.0 0.00 0.00 0.00 26 1015.9
20260507205015 65 304 6.0 17.0 0.00 0.00 0.00 24 1015.5
20260507204513 65 300 10.0 18.0 0.00 0.00 0.00 24 1016.1
20260507204510 65 284 6.0 17.0 0.00 0.00 0.00 25 1015.7
20260507204004 65 224 5.0 11.0 0.00 0.00 0.00 26 1015.5
20260507203458 65 338 5.0 11.0 0.00 0.00 0.00 27 1015.8
20260507203015 64 325 4.0 11.0 0.00 0.00 0.00 26 1016.3
20260507202448 64 242 5.0 14.0 0.00 0.00 0.00 24 1015.8
20260507201948 64 306 6.0 14.0 0.00 0.00 0.00 25 1015.9
20260507201506 65 5 6.0 14.0 0.00 0.00 0.00 25 1016.7
20260507201449 65 290 4.0 13.0 0.00 0.00 0.00 25 1015.9
20260507200446 64 328 5.0 14.0 0.00 0.00 0.00 26 1016.2
20260507200007 64 293 5.0 15.0 0.00 0.00 0.00 25 1016.8
20260507195947 64 278 5.0 11.0 0.00 0.00 0.00 26 1016.2
20260507195444 64 13 6.0 13.0 0.00 0.00 0.00 25 1016.2
20260507194941 64 344 7.0 16.0 0.00 0.00 0.00 25 1016.3
20260507194509 63 288 8.0 17.0 0.00 0.00 0.00 24 1017.1
20260507194443 64 300 7.0 16.0 0.00 0.00 0.00 24 1016.3
20260507193942 64 290 5.0 13.0 0.00 0.00 0.00 25 1016.3
20260507193015 64 265 5.0 15.0 0.00 0.00 0.00 26 1017.1
20260507192442 65 333 3.0 9.0 0.00 0.00 0.00 26 1016.5
20260507191941 64 307 5.0 21.0 0.00 0.00 0.00 26 1016.4
20260507191515 64 326 1.0 23.0 0.00 0.00 0.00 25 1017.3
20260507191441 64 320 5.0 21.0 0.00 0.00 0.00 25 1016.5
20260507190942 64 209 4.0 10.0 0.00 0.01 0.00 26 1016.4
20260507190436 64 276 4.0 10.0 0.00 0.01 0.00 23 1016.5
20260507190004 63 267 4.0 12.0 0.00 0.02 0.00 22 1017.3
20260507185930 63 236 4.0 11.0 0.00 0.02 0.00 23 1016.6
20260507185431 64 248 3.0 11.0 0.00 0.03 0.00 22 1016.8
20260507184931 63 342 1.0 6.0 0.00 0.04 0.00 26 1016.8
20260507184507 62 20 1.0 7.0 0.00 0.04 0.00 24 1017.4
20260507184429 63 39 2.0 6.0 0.00 0.04 0.00 23 1016.8
20260507183930 63 203 3.0 7.0 0.00 0.04 0.00 24 1016.8
20260507183431 63 291 3.0 7.0 0.00 0.05 0.00 24 1016.9
20260507183011 62 202 2.0 7.0 0.00 0.05 0.00 23 1017.5
20260507182929 62 177 2.0 7.0 0.00 0.05 0.00 23 1016.8
20260507182429 62 182 3.0 9.0 0.00 0.05 0.00 23 1016.8
20260507181929 62 210 4.0 9.0 0.00 0.06 0.00 21 1016.8
20260507181502 62 221 3.0 11.0 0.00 0.06 0.00 22 1017.4
20260507180931 62 202 3.0 7.0 0.00 0.07 0.00 25 1017.0
20260507180429 61 234 3.0 7.0 0.00 0.07 0.00 23 1017.1
20260507180005 61 320 3.0 8.0 0.00 0.07 0.00 20 1017.6
20260507175929 61 314 3.0 7.0 0.00 0.07 0.00 20 1017.1
20260507175430 61 307 3.0 8.0 0.00 0.08 0.00 23 1017.3
20260507174929 61 323 3.0 8.0 0.00 0.08 0.00 21 1017.4
20260507174508 61 268 2.0 9.0 0.00 0.08 0.00 20 1017.8
20260507174431 62 275 3.0 8.0 0.00 0.08 0.00 22 1017.3
20260507173923 62 282 3.0 7.0 0.00 0.09 0.00 20 1017.5
20260507173017 62 309 4.0 8.0 0.00 0.09 0.00 20 1018.0
20260507172910 62 320 2.0 5.0 0.00 0.09 0.00 22 1017.5
20260507172404 62 323 3.0 8.0 0.00 0.10 0.00 20 1017.6
20260507171857 61 357 3.0 8.0 0.00 0.10 0.00 21 1017.6
20260507171517 60 360 3.0 9.0 0.00 0.10 0.00 19 1018.1
20260507171352 61 41 2.0 7.0 0.00 0.10 0.00 21 1017.6
20260507170846 60 236 3.0 8.0 0.00 0.11 0.00 18 1017.7
20260507170339 60 103 4.0 10.0 0.00 0.11 0.00 20 1017.7
20260507170004 60 275 6.0 11.0 0.00 0.11 0.00 18 1018.2
20260507165834 61 295 2.0 7.0 0.00 0.11 0.00 21 1017.9
20260507165328 60 282 2.0 8.0 0.00 0.11 0.00 21 1017.9
20260507164503 60 268 2.0 9.0 0.00 0.12 0.00 23 1018.3
20260507164316 60 250 3.0 10.0 0.00 0.12 0.00 27 1017.9
20260507163811 59 231 3.0 10.0 0.00 0.12 0.00 24 1017.9
20260507163008 59 226 1.0 8.0 0.00 0.13 0.00 26 1018.3
20260507162759 59 214 3.0 7.0 0.00 0.13 0.00 26 1017.9
20260507161746 58 259 5.0 10.0 0.00 0.13 0.00 23 1017.9
20260507161510 57 254 3.0 11.0 0.00 0.13 0.00 25 1018.4
20260507161241 58 264 4.0 10.0 0.00 0.14 0.00 24 1018.0
20260507160734 58 257 4.0 9.0 0.00 0.14 0.00 25 1018.1
20260507160228 58 334 3.0 9.0 0.00 0.14 0.00 27 1018.1
20260507160019 57 355 2.0 11.0 0.00 0.14 0.00 26 1018.4
20260507155722 57 341 4.0 10.0 0.00 0.15 0.00 26 1018.1
20260507154711 56 247 5.0 11.0 0.00 0.17 0.00 28 1018.2
20260507154504 56 254 6.0 11.0 0.00 0.17 0.00 27 1018.6
20260507154204 56 288 5.0 11.0 0.00 0.17 0.00 29 1018.1
20260507153658 56 352 5.0 11.0 0.00 0.17 0.00 30 1018.1
20260507153152 55 304 5.0 11.0 0.00 0.17 0.00 30 1018.2
20260507153006 55 275 5.0 12.0 0.00 0.17 0.00 29 1018.5
20260507152140 55 356 4.0 8.0 0.00 0.17 0.00 32 1018.2
20260507151634 55 282 4.0 9.0 0.00 0.17 0.00 32 1018.2
20260507151510 54 271 3.0 10.0 0.00 0.17 0.00 32 1018.5
20260507150622 54 343 4.0 12.0 0.00 0.17 0.00 32 1018.2
20260507150116 53 323 4.0 12.0 0.00 0.17 0.00 35 1018.2
20260507150017 53 355 3.0 13.0 0.00 0.17 0.00 33 1018.5
20260507145609 53 258 4.0 11.0 0.00 0.17 0.00 37 1018.2
20260507145104 52 350 5.0 11.0 0.00 0.17 0.00 36 1018.2
20260507144558 52 278 5.0 12.0 0.00 0.17 0.00 37 1018.2
20260507144520 51 306 4.0 13.0 0.00 0.17 0.00 36 1018.5
20260507144051 51 313 5.0 12.0 0.00 0.17 0.00 36 1018.2
20260507143546 51 344 4.0 10.0 0.00 0.17 0.00 37 1018.4
20260507143005 50 271 3.0 11.0 0.00 0.17 0.00 37 1018.6
20260507142534 50 276 3.0 8.0 0.00 0.17 0.00 38 1018.2
20260507142029 50 306 3.0 8.0 0.00 0.17 0.00 38 1018.2
20260507141522 49 334 3.0 8.0 0.00 0.17 0.00 38 1018.2
20260507141508 49 298 2.0 9.0 0.00 0.17 0.00 38 1018.6
20260507141016 49 313 2.0 8.0 0.00 0.17 0.00 40 1018.2
20260507140510 48 291 2.0 7.0 0.00 0.17 0.00 39 1018.4
20260507140012 48 267 3.0 7.0 0.00 0.17 0.00 40 1018.7
20260507140003 48 325 2.0 6.0 0.00 0.17 0.00 39 1018.4
20260507135457 47 298 2.0 7.0 0.00 0.17 0.00 40 1018.4
20260507134951 47 273 2.0 7.0 0.00 0.17 0.00 41 1018.4
20260507134519 46 308 2.0 5.0 0.00 0.17 0.00 42 1018.6
20260507134446 46 322 1.0 5.0 0.00 0.17 0.00 42 1018.4
20260507133940 46 349 1.0 4.0 0.00 0.17 0.00 47 1018.2
20260507133435 44 307 1.0 4.0 0.00 0.17 0.00 46 1018.2
20260507133024 43 285 0.0 6.0 0.00 0.17 0.00 49 1018.6
20260507132928 43 293 1.0 5.0 0.00 0.17 0.00 49 1018.1
20260507131916 41 320 0.0 4.0 0.00 0.17 0.00 55 1018.0
20260507131510 39 301 0.0 4.0 0.00 0.17 0.00 62 1018.5
20260507131410 40 333 0.0 4.0 0.00 0.17 0.00 60 1018.0
20260507130904 38 16 0.0 2.0 0.00 0.17 0.00 62 1018.0
20260507130359 37 16 0.0 2.0 0.00 0.17 0.00 62 1018.0
20260507130012 36 355 0.0 1.0 0.00 0.17 0.00 60 1018.4
20260507125852 36 359 0.0 1.0 0.00 0.17 0.00 61 1018.0
20260507125347 35 359 0.0 0.0 0.00 0.17 0.00 62 1017.9
20260507124840 35 359 0.0 1.0 0.00 0.17 0.00 65 1017.9
20260507124513 34 355 0.0 2.0 0.00 0.17 0.00 66 1018.3
20260507124334 34 359 0.0 2.0 0.00 0.17 0.00 66 1017.7
20260507123829 34 359 0.0 2.0 0.00 0.17 0.00 67 1017.7
20260507123322 33 359 0.0 2.0 0.00 0.17 0.00 65 1017.7
20260507123019 33 355 0.0 2.0 0.00 0.17 0.00 64 1018.1
20260507122816 33 359 0.0 2.0 0.00 0.17 0.00 64 1017.6
20260507122310 33 359 0.0 1.0 0.00 0.17 0.00 64 1017.6
20260507121805 33 359 0.0 1.0 0.00 0.17 0.00 64 1017.6
20260507121524 32 355 0.0 1.0 0.00 0.17 0.00 63 1018.1
20260507121258 33 359 0.0 2.0 0.00 0.17 0.00 62 1017.6
20260507120753 34 359 0.0 2.0 0.00 0.17 0.00 61 1017.6
20260507120246 34 354 0.0 3.0 0.00 0.17 0.00 59 1017.5
20260507120038 34 329 0.0 5.0 0.00 0.17 0.00 58 1018.0
20260507115740 34 334 1.0 5.0 0.00 0.17 0.00 58 1017.5